This is the latest recevied weather packets stored in our database for station/object WV5G-13. If no packets are shown the sender has not sent any weather packets the latest 10 day(s).
| Time | Temp. | Humidity | Pressure | Rain* | Wind** | Luminosity | Snow |
|---|---|---|---|---|---|---|---|
| 1777723923 | 4.44° C | 88% | 1019.4 hPa | 0 mm | - | 18 W/m² | - |
| 1777723619 | 3.89° C | 89% | 1019.5 hPa | 0 mm | - | 13 W/m² | - |
| 1777723316 | 3.89° C | 89% | 1019.4 hPa | 0 mm | - | 9 W/m² | - |
| 1777723014 | 3.89° C | 89% | 1019.2 hPa | 0 mm | - | 5 W/m² | - |
| 1777722710 | 3.89° C | 89% | 1019.4 hPa | 0 mm | - | 2 W/m² | - |
| 1777722406 | 3.89° C | 89% | 1019.5 hPa | 0 mm | - | 1 W/m² | - |
| 1777722104 | 3.33° C | 90% | 1019.2 hPa | 0 mm | - | 0 W/m² | - |
| 1777721801 | 3.33° C | 90% | 1019.1 hPa | 0 mm | - | 0 W/m² | - |
| 1777721499 | 2.78° C | 90% | 1019.2 hPa | 0 mm | - | 0 W/m² | - |
| 1777721197 | 2.78° C | 89% | 1019.2 hPa | 0 mm | - | 0 W/m² | - |
| 1777720894 | 3.33° C | 89% | 1019.2 hPa | 0 mm | - | 0 W/m² | - |
| 1777720591 | 3.33° C | 88% | 1019.1 hPa | 0 mm | - | 0 W/m² | - |
| 1777720288 | 3.89° C | 89% | 1019.4 hPa | 0 mm | - | 0 W/m² | - |
| 1777719986 | 3.33° C | 88% | 1019.2 hPa | 0 mm | - | 0 W/m² | - |
| 1777719683 | 3.33° C | 87% | 1019.4 hPa | 0 mm | - | 0 W/m² | - |
| 1777719381 | 4.44° C | 87% | 1019.4 hPa | 0 mm | - | 0 W/m² | - |
| 1777719078 | 3.89° C | 88% | 1019.1 hPa | 0 mm | - | 0 W/m² | - |
| 1777718775 | 3.89° C | 88% | 1019.2 hPa | 0 mm | - | 0 W/m² | - |
| 1777718472 | 4.44° C | 88% | 1019.4 hPa | 0 mm | - | 0 W/m² | - |
| 1777718170 | 4.44° C | 89% | 1019.2 hPa | 0 mm | - | 0 W/m² | - |
| 1777717868 | 3.33° C | 90% | 1019.2 hPa | 0 mm | - | 0 W/m² | - |
| 1777717564 | 2.78° C | 89% | 1019.2 hPa | 0 mm | - | 0 W/m² | - |
| 1777717261 | 2.78° C | 89% | 1019 hPa | 0 mm | - | 0 W/m² | - |
| 1777716959 | 2.78° C | 89% | 1019.4 hPa | 0 mm | - | 0 W/m² | - |
| 1777716657 | 2.22° C | 88% | 1019.2 hPa | 0 mm | - | 0 W/m² | - |
* Rain latest hour (hover to see other rain measurements)
** Current wind speed in m/s (hover to see current wind gust speed)